STARLINK-30469, 57896

Orbit data source: Space-Track

STARLINK-30469, 57896 is a payload satellite owned by SpaceX/Seattle (US) in LEO that was launched on Wed, 20 Sep 2023 UTC via an FALCON 9 launch vehicle from the Air Force Eastern Test Range (AFETR). Payload-class satellites include a variety of spacecraft equipped with specific instruments for various scientific and technological missions. These include communications satellites like Starlink; space stations such as the ISS; scientific satellites like the Hubble; Earth observation satellites from companies like Planet Labs, Umbra, and HawkEye 360; GPS; miniature CubeSats for education and research; and military/defense satellites.

Loading next visibility...
Identifier
57896, 2023-146F
Orbit
LEO
Country
Flag of USUS
Related business
Manufacturer
SpaceX/Seattle
Mission
Operational Commercial Communications
Bus & Motor
STARLINK V2M, Unknown motor
Mass
730 kg wet, ~700 kg dry
Launch date (UTC)
2023-09-20 (3 years ago)
Launch vehicle
FALCON 9
Launch site
Air Force Eastern Test Range (AFETR)
Object type
Payload
Rocket body
Debris
Shape & HBR
Box + 2 Pan, 17.7 m
Radar Cross Section
33.884 m², Large (>1 m²)

Expand to show TLE details & history
Last TLE update: 2 days ago

TLE from 2 days ago
0 STARLINK-30469
1 57896U 23146F   26171.13093232  .00000815  00000-0  39121-4 0  9995
2 57896  43.0033  95.6395 0001388 267.5852  92.4841 15.27581985152728
Epoch: 2026-06-20T03:08Z
TLE epoch observation values (Epoch: 2026-06-20T03:08:32.552Z)
Latitude
-0°
Longitude
140.1539°
Altitude
482.86 km
Speed
7.626 km/s
True Right ascension
06h 22m 33s
True Declination
0° 00' 00"
Sunlit
Object was in daylight at epoch
Visualization orbit readout
Latitude
Unknown
Longitude
Unknown
Altitude
Unknown
Speed
Unknown
Apparent Right ascension
Unknown
Apparent Declination
Unknown
Sunlit
N/A
Visualization observer readout
Local Sidereal Time
23:19:41
Azimuth
Unknown
Elevation
Unknown
Doppler factor
Unknown
Orbital elements
Apogee altitude
485.94 km
Perigee altitude
484.035 km
Semi-major axis
6,863.125 km
Eccentricity
0.00014
Inclination
43.0033°
RAAN
95.6395°
Arg. of periapsis
267.5852°
True anomaly
92.49999°
Mean anomaly
92.4841°
Eccentric anomaly
92.49205°
Mean motion
3.81734 °/min
Orbital period
94.31 mins
BSTAR
0.000039121
Loading maneuver chart data...
Computing Atmospheric mass density...
Loading historical data...
Loading historical data...
Loading historical data...
Loading historical data...
Loading historical data...
Loading historical data...
Loading historical data...

Documentation

Showing up to 5 results
|